Cortez, CO

2:56 AM MDT on April 23, 2017 (GMT -0600)
Cortez Municipal

Weather History for KCEZ - October, 2014

Change the Weather History Date:

Monday, October 13, 2014

  Actual Average Record
Temperature  
Mean Temperature 47 °F 50 °F  
Max Temperature 62 °F 67 °F 81 °F (1998)
Min Temperature 32 °F 32 °F 14 °F (2008)
Degree Days  
Heating Degree Days 18 15  
Month to date heating degree days 150 170  
Since 1 July heating degree days 229 342  
Cooling Degree Days 0 0  
Month to date cooling degree days 0 0  
Year to date cooling degree days 537 426  
Moisture  
Dew Point 24 °F    
Average Humidity 47    
Maximum Humidity 75    
Minimum Humidity 18    
Precipitation  
Precipitation 0.00 in 0.05 in 0.00 in (2017)
Month to date precipitation 0.12 0.68  
Year to date precipitation 7.72 10.90  
Sea Level Pressure  
Sea Level Pressure 30.16 in    
Wind  
Wind Speed 9 mph (NNE)    
Max Wind Speed 22 mph    
Max Gust Speed 32 mph    
Visibility 10 miles    
Events      
T = Trace of Precipitation, MM = Missing Value Source: NWS Daily Summary

Daily Weather History Graph

Daily Weather History Graph

Search for Another Location

Airport or City:

Trip Planner

Search our weather history database for the weather conditions in past years. The results will help you decide how hot, cold, wet, or windy it might be!

Date:

Astronomy

Oct. 13, 2014 Rise Set
Actual Time 7:20 AM MDT 6:40 PM MDT
Civil Twilight 6:54 AM MDT 7:06 PM MDT
Nautical Twilight 6:24 AM MDT 7:36 PM MDT
Astronomical Twilight 5:54 AM MDT 8:06 PM MDT
Moon 10:57 PM MDT (10/13) 12:33 PM MDT (10/13)
Length of Visible Light 12h 11m
Length of Day
11h 19m
Waning Gibbous, 70% of the Moon is Illuminated
Oct 13
Waning Gibbous
Oct 15
Last Quarter
Oct 23
New
Oct 30
First Quarter
Nov 6
Full

Hourly Weather History & Observations

Time (MDT) Temp. Windchill Dew Point Humidity Pressure Visibility Wind Dir Wind Speed Gust Speed Precip Events Conditions
12:53 AM 37.0 °F 33.3 °F 28.0 °F 70% 30.08 in 10.0 mi East 4.6 mph - N/A   Clear
1:53 AM 37.9 °F 33.5 °F 27.0 °F 65% 30.09 in 10.0 mi East 5.8 mph - N/A   Clear
2:53 AM 37.0 °F 32.4 °F 27.0 °F 67% 30.10 in 10.0 mi North 5.8 mph - N/A   Clear
3:53 AM 37.9 °F 34.4 °F 27.0 °F 65% 30.10 in 10.0 mi NNW 4.6 mph - N/A   Clear
4:53 AM 33.1 °F 28.7 °F 26.1 °F 75% 30.12 in 10.0 mi East 4.6 mph - N/A   Clear
5:53 AM 33.1 °F 30.0 °F 26.1 °F 75% 30.15 in 10.0 mi East 3.5 mph - N/A   Clear
6:53 AM 37.9 °F 34.4 °F 26.1 °F 62% 30.17 in 10.0 mi Variable 4.6 mph - N/A   Clear
7:53 AM 36.0 °F 29.6 °F 27.0 °F 70% 30.22 in 10.0 mi ESE 8.1 mph - N/A   Clear
8:53 AM 43.0 °F 40.3 °F 28.0 °F 56% 30.22 in 10.0 mi ESE 4.6 mph - N/A   Clear
9:53 AM 50.0 °F - 28.0 °F 43% 30.19 in 10.0 mi North 10.4 mph 19.6 mph N/A   Clear
10:53 AM 54.0 °F - 27.0 °F 35% 30.18 in 10.0 mi North 11.5 mph 20.7 mph N/A   Clear
11:53 AM 57.0 °F - 24.1 °F 28% 30.16 in 10.0 mi NNW 15.0 mph 21.9 mph N/A   Clear
12:53 PM 59.0 °F - 19.9 °F 22% 30.16 in 10.0 mi North 16.1 mph 24.2 mph N/A   Clear
1:53 PM 61.0 °F - 19.0 °F 20% 30.13 in 10.0 mi NNW 13.8 mph - N/A   Clear
2:53 PM 61.0 °F - 19.9 °F 21% 30.12 in 10.0 mi NNW 18.4 mph 28.8 mph N/A   Clear
3:53 PM 62.1 °F - 21.0 °F 21% 30.12 in 10.0 mi NW 18.4 mph 28.8 mph N/A   Clear
4:53 PM 61.0 °F - 17.1 °F 18% 30.14 in 10.0 mi NNW 15.0 mph - N/A   Clear
5:53 PM 59.0 °F - 15.1 °F 18% 30.16 in 10.0 mi NNW 13.8 mph 23.0 mph N/A   Clear
6:53 PM 55.0 °F - 21.0 °F 27% 30.16 in 10.0 mi NW 6.9 mph - N/A   Clear
7:53 PM 52.0 °F - 23.0 °F 32% 30.20 in 10.0 mi NNW 5.8 mph - N/A   Clear
8:53 PM 48.0 °F - 21.9 °F 36% 30.21 in 10.0 mi North 4.6 mph - N/A   Clear
9:53 PM 44.1 °F 40.1 °F 24.1 °F 45% 30.21 in 10.0 mi NNE 6.9 mph - N/A   Clear
10:53 PM 37.0 °F 32.4 °F 25.0 °F 62% 30.21 in 10.0 mi ENE 5.8 mph - N/A   Clear
11:53 PM 37.0 °F 31.0 °F 25.0 °F 62% 30.20 in 10.0 mi ENE 8.1 mph - N/A   Clear